| time (UTC) | temp C | wind direction | speed KPH | gust KPH | rain 1hr cm | rain 24hr cm | rain mn cm | humidity % | barometer mb |
| 20260902021957 | 23 | 117 | 6.4 | 9.7 | 0.00 | 0.00 | 0.00 | 23 | 1014.8 |
| 20260902021556 | 24 | 114 | 4.8 | 8.0 | 0.00 | 0.00 | 0.00 | 23 | 1014.7 |
| 20260902021155 | 24 | 101 | 3.2 | 6.4 | 0.00 | 0.00 | 0.00 | 22 | 1014.8 |
| 20260902020753 | 24 | 135 | 4.8 | 8.0 | 0.00 | 0.00 | 0.00 | 21 | 1014.7 |
| 20260902015543 | 26 | 153 | 4.8 | 8.0 | 0.00 | 0.00 | 0.00 | 20 | 1014.7 |
| 20260902014741 | 27 | 186 | 4.8 | 9.7 | 0.00 | 0.00 | 0.00 | 20 | 1014.6 |
| 20260902013938 | 27 | 182 | 4.8 | 14.5 | 0.00 | 0.00 | 0.00 | 19 | 1014.7 |
| 20260902013537 | 27 | 182 | 6.4 | 9.7 | 0.00 | 0.00 | 0.00 | 19 | 1014.7 |
| 20260902013136 | 27 | 167 | 4.8 | 9.7 | 0.00 | 0.00 | 0.00 | 18 | 1014.8 |
| 20260902012735 | 28 | 186 | 9.7 | 9.7 | 0.00 | 0.00 | 0.00 | 18 | 1014.8 |
| 20260902012333 | 28 | 184 | 8.0 | 11.3 | 0.00 | 0.00 | 0.00 | 18 | 1014.8 |
| 20260902011931 | 28 | 180 | 8.0 | 11.3 | 0.00 | 0.00 | 0.00 | 18 | 1014.7 |
| 20260902011534 | 28 | 130 | 3.2 | 8.0 | 0.00 | 0.00 | 0.00 | 18 | 1014.7 |
| 20260902011129 | 28 | 153 | 6.4 | 9.7 | 0.00 | 0.00 | 0.00 | 18 | 1014.8 |
| 20260902010728 | 28 | 189 | 8.0 | 9.7 | 0.00 | 0.00 | 0.00 | 18 | 1014.8 |
| 20260902010327 | 28 | 144 | 6.4 | 8.0 | 0.00 | 0.00 | 0.00 | 18 | 1014.9 |
| 20260902005925 | 28 | 139 | 8.0 | 12.9 | 0.00 | 0.00 | 0.00 | 18 | 1014.9 |
| 20260902005523 | 28 | 141 | 9.7 | 14.5 | 0.00 | 0.00 | 0.00 | 18 | 1014.9 |
| 20260902004721 | 28 | 130 | 12.9 | 12.9 | 0.00 | 0.00 | 0.00 | 17 | 1014.9 |
| 20260902004320 | 28 | 135 | 12.9 | 12.9 | 0.00 | 0.00 | 0.00 | 17 | 1015.0 |
| 20260902003920 | 28 | 135 | 11.3 | 14.5 | 0.00 | 0.00 | 0.00 | 17 | 1015.0 |
| 20260902003517 | 28 | 132 | 12.9 | 14.5 | 0.00 | 0.00 | 0.00 | 16 | 1015.1 |
| 20260902003116 | 29 | 164 | 12.9 | 17.7 | 0.00 | 0.00 | 0.00 | 16 | 1015.1 |
| 20260902002314 | 29 | 146 | 16.1 | 16.1 | 0.00 | 0.00 | 0.00 | 16 | 1015.0 |
| 20260902001912 | 29 | 144 | 9.7 | 14.5 | 0.00 | 0.00 | 0.00 | 17 | 1015.0 |
| 20260902001110 | 30 | 135 | 16.1 | 16.1 | 0.00 | 0.00 | 0.00 | 16 | 1015.0 |
| 20260902000312 | 31 | 197 | 6.4 | 12.9 | 0.00 | 0.00 | 0.00 | 17 | 1015.0 |
| 20260901234302 | 31 | 135 | 14.5 | 16.1 | 0.00 | 0.00 | 0.00 | 16 | 1014.9 |
| 20260901233859 | 31 | 153 | 4.8 | 16.1 | 0.00 | 0.00 | 0.00 | 16 | 1015.0 |
| 20260901233458 | 31 | 141 | 16.1 | 16.1 | 0.00 | 0.00 | 0.00 | 16 | 1015.0 |
| 20260901233057 | 32 | 157 | 9.7 | 12.9 | 0.00 | 0.00 | 0.00 | 16 | 1015.0 |
| 20260901232255 | 32 | 177 | 6.4 | 19.3 | 0.00 | 0.00 | 0.00 | 15 | 1015.1 |
| 20260901231853 | 32 | 173 | 9.7 | 12.9 | 0.00 | 0.00 | 0.00 | 15 | 1015.1 |
| 20260901231452 | 32 | 191 | 6.4 | 14.5 | 0.00 | 0.00 | 0.00 | 15 | 1015.1 |
| 20260901231050 | 31 | 182 | 4.8 | 14.5 | 0.00 | 0.00 | 0.00 | 15 | 1015.2 |
| 20260901230248 | 31 | 135 | 14.5 | 16.1 | 0.00 | 0.00 | 0.00 | 15 | 1015.3 |
| 20260901225847 | 32 | 135 | 14.5 | 17.7 | 0.00 | 0.00 | 0.00 | 15 | 1015.2 |
| 20260901225445 | 32 | 193 | 9.7 | 17.7 | 0.00 | 0.00 | 0.00 | 14 | 1015.3 |
| 20260901225044 | 32 | 135 | 12.9 | 19.3 | 0.00 | 0.00 | 0.00 | 14 | 1015.3 |
| 20260901224643 | 32 | 153 | 11.3 | 17.7 | 0.00 | 0.00 | 0.00 | 14 | 1015.4 |
| 20260901224242 | 32 | 165 | 8.0 | 17.7 | 0.00 | 0.00 | 0.00 | 14 | 1015.4 |
| 20260901223840 | 33 | 141 | 11.3 | 16.1 | 0.00 | 0.00 | 0.00 | 14 | 1015.5 |
| 20260901223037 | 32 | 148 | 11.3 | 17.7 | 0.00 | 0.00 | 0.00 | 15 | 1015.3 |
| 20260901222636 | 32 | 145 | 11.3 | 17.7 | 0.00 | 0.00 | 0.00 | 14 | 1015.4 |
| 20260901222235 | 33 | 139 | 14.5 | 19.3 | 0.00 | 0.00 | 0.00 | 15 | 1015.3 |
| 20260901221834 | 33 | 135 | 14.5 | 17.7 | 0.00 | 0.00 | 0.00 | 14 | 1015.4 |
| 20260901221433 | 33 | 168 | 9.7 | 14.5 | 0.00 | 0.00 | 0.00 | 15 | 1015.4 |
| 20260901221034 | 33 | 150 | 12.9 | 14.5 | 0.00 | 0.00 | 0.00 | 14 | 1015.5 |
| 20260901220629 | 34 | 150 | 9.7 | 24.1 | 0.00 | 0.00 | 0.00 | 15 | 1015.5 |
| 20260901220228 | 34 | 146 | 3.2 | 14.5 | 0.00 | 0.00 | 0.00 | 14 | 1015.5 |
| 20260901215827 | 34 | 175 | 11.3 | 11.3 | 0.00 | 0.00 | 0.00 | 14 | 1015.6 |
| 20260901215426 | 34 | 123 | 9.7 | 12.9 | 0.00 | 0.00 | 0.00 | 15 | 1015.6 |
| 20260901215025 | 35 | 146 | 8.0 | 14.5 | 0.00 | 0.00 | 0.00 | 15 | 1015.7 |
| 20260901214623 | 34 | 175 | 14.5 | 16.1 | 0.00 | 0.00 | 0.00 | 14 | 1015.8 |
| 20260901213821 | 33 | 173 | 8.0 | 14.5 | 0.00 | 0.00 | 0.00 | 15 | 1015.8 |
| 20260901213420 | 33 | 177 | 12.9 | 12.9 | 0.00 | 0.00 | 0.00 | 15 | 1015.9 |
| 20260901213020 | 33 | 177 | 8.0 | 14.5 | 0.00 | 0.00 | 0.00 | 16 | 1015.9 |
| 20260901212617 | 34 | 142 | 8.0 | 14.5 | 0.00 | 0.00 | 0.00 | 15 | 1015.9 |
| 20260901212216 | 33 | 184 | 9.7 | 14.5 | 0.00 | 0.00 | 0.00 | 16 | 1016.0 |
| 20260901211814 | 33 | 137 | 16.1 | 16.1 | 0.00 | 0.00 | 0.00 | 16 | 1016.0 |
| 20260901211413 | 34 | 180 | 8.0 | 19.3 | 0.00 | 0.00 | 0.00 | 17 | 1016.0 |
| 20260901211012 | 35 | 176 | 6.4 | 12.9 | 0.00 | 0.00 | 0.00 | 17 | 1015.9 |
| 20260901210611 | 35 | 180 | 9.7 | 11.3 | 0.00 | 0.00 | 0.00 | 17 | 1016.1 |
| 20260901205812 | 34 | 165 | 8.0 | 12.9 | 0.00 | 0.00 | 0.00 | 18 | 1016.1 |
| 20260901205408 | 34 | 144 | 6.4 | 14.5 | 0.00 | 0.00 | 0.00 | 19 | 1016.2 |
| 20260901205006 | 34 | 137 | 6.4 | 16.1 | 0.00 | 0.00 | 0.00 | 19 | 1016.3 |
| 20260901204604 | 34 | 177 | 6.4 | 14.5 | 0.00 | 0.00 | 0.00 | 20 | 1016.3 |
| 20260901204203 | 34 | 155 | 11.3 | 14.5 | 0.00 | 0.00 | 0.00 | 20 | 1016.3 |
| 20260901203802 | 33 | 162 | 6.4 | 14.5 | 0.00 | 0.00 | 0.00 | 20 | 1016.4 |
| 20260901203402 | 34 | 173 | 11.3 | 12.9 | 0.00 | 0.00 | 0.00 | 20 | 1016.3 |
| 20260901202203 | 33 | 32 | 1.6 | 12.9 | 0.00 | 0.00 | 0.00 | 20 | 1016.5 |
| 20260901202201 | 33 | 32 | 1.6 | 12.9 | 0.00 | 0.00 | 0.00 | 20 | 1016.5 |
| 20260901201756 | 33 | 199 | 6.4 | 12.9 | 0.00 | 0.00 | 0.00 | 22 | 1016.6 |
| 20260901201354 | 33 | 191 | 12.9 | 14.5 | 0.00 | 0.00 | 0.00 | 23 | 1016.6 |
| 20260901200955 | 33 | 151 | 4.8 | 11.3 | 0.00 | 0.00 | 0.00 | 23 | 1016.7 |
| 20260901200551 | 33 | 174 | 4.8 | 11.3 | 0.00 | 0.00 | 0.00 | 23 | 1016.6 |
| 20260901195749 | 32 | 186 | 4.8 | 14.5 | 0.00 | 0.00 | 0.00 | 24 | 1016.7 |
| 20260901195348 | 33 | 157 | 3.2 | 14.5 | 0.00 | 0.00 | 0.00 | 24 | 1016.8 |
| 20260901194947 | 32 | 162 | 4.8 | 14.5 | 0.00 | 0.00 | 0.00 | 25 | 1016.8 |
| 20260901194545 | 31 | 192 | 9.7 | 19.3 | 0.00 | 0.00 | 0.00 | 25 | 1016.8 |
| 20260901194143 | 31 | 171 | 6.4 | 14.5 | 0.00 | 0.00 | 0.00 | 25 | 1016.9 |
| 20260901193742 | 30 | 128 | 12.9 | 22.5 | 0.00 | 0.00 | 0.00 | 25 | 1016.8 |
| 20260901193342 | 31 | 139 | 14.5 | 17.7 | 0.00 | 0.00 | 0.00 | 26 | 1016.9 |
| 20260901192940 | 31 | 200 | 6.4 | 17.7 | 0.00 | 0.00 | 0.00 | 26 | 1017.0 |
| 20260901192539 | 31 | 166 | 3.2 | 12.9 | 0.00 | 0.00 | 0.00 | 26 | 1017.0 |
| 20260901192138 | 31 | 135 | 14.5 | 16.1 | 0.00 | 0.00 | 0.00 | 26 | 1017.0 |
| 20260901191736 | 31 | 177 | 4.8 | 11.3 | 0.00 | 0.00 | 0.00 | 27 | 1017.0 |
| 20260901191334 | 31 | 148 | 11.3 | 12.9 | 0.00 | 0.00 | 0.00 | 27 | 1017.0 |
| 20260901190933 | 31 | 182 | 12.9 | 16.1 | 0.00 | 0.00 | 0.00 | 27 | 1017.1 |
| 20260901190532 | 30 | 108 | 12.9 | 12.9 | 0.00 | 0.00 | 0.00 | 27 | 1017.0 |
| 20260901190131 | 29 | 135 | 11.3 | 16.1 | 0.00 | 0.00 | 0.00 | 28 | 1017.0 |
| 20260901184927 | 30 | 148 | 4.8 | 12.9 | 0.00 | 0.00 | 0.00 | 28 | 1017.0 |
| 20260901184526 | 30 | 137 | 8.0 | 11.3 | 0.00 | 0.00 | 0.00 | 28 | 1017.1 |
| 20260901184124 | 30 | 155 | 8.0 | 12.9 | 0.00 | 0.00 | 0.00 | 29 | 1017.2 |
| 20260901183724 | 29 | 141 | 9.7 | 14.5 | 0.00 | 0.00 | 0.00 | 29 | 1017.1 |
| 20260901183322 | 28 | 117 | 8.0 | 16.1 | 0.00 | 0.00 | 0.00 | 29 | 1017.1 |
| 20260901182921 | 28 | 105 | 11.3 | 16.1 | 0.00 | 0.00 | 0.00 | 29 | 1017.1 |
| 20260901182118 | 28 | 162 | 6.4 | 17.7 | 0.00 | 0.00 | 0.00 | 29 | 1017.3 |
| 20260901181316 | 27 | 114 | 11.3 | 17.7 | 0.00 | 0.00 | 0.00 | 30 | 1017.2 |
| 20260901180914 | 28 | 135 | 14.5 | 16.1 | 0.00 | 0.00 | 0.00 | 30 | 1017.3 |
| 20260901180111 | 28 | 121 | 9.7 | 12.9 | 0.00 | 0.00 | 0.00 | 31 | 1017.3 |
| 20260901175309 | 30 | 135 | 1.6 | 9.7 | 0.00 | 0.00 | 0.00 | 31 | 1017.3 |
| 20260901174105 | 29 | 189 | 8.0 | 8.0 | 0.00 | 0.00 | 0.00 | 32 | 1017.3 |
| 20260901171252 | 27 | 148 | 4.8 | 12.9 | 0.00 | 0.00 | 0.00 | 35 | 1017.3 |
| 20260901171225 | 27 | 153 | 1.6 | 4.8 | 0.00 | 0.00 | 0.00 | 36 | 1017.2 |
| 20260901170849 | 27 | 153 | 1.6 | 4.8 | 0.00 | 0.00 | 0.00 | 36 | 1017.2 |
| 20260901170450 | 28 | 210 | 1.6 | 9.7 | 0.00 | 0.00 | 0.00 | 36 | 1017.2 |
| 20260901170049 | 27 | 270 | 1.6 | 9.7 | 0.00 | 0.00 | 0.00 | 36 | 1017.1 |
| 20260901165645 | 26 | 135 | 6.4 | 9.7 | 0.00 | 0.00 | 0.00 | 37 | 1017.1 |
| 20260901165243 | 26 | 137 | 8.0 | 9.7 | 0.00 | 0.00 | 0.00 | 37 | 1017.2 |
| 20260901164843 | 26 | 137 | 4.8 | 11.3 | 0.00 | 0.00 | 0.00 | 38 | 1017.2 |
| 20260901164442 | 26 | 96 | 0.0 | 11.3 | 0.00 | 0.00 | 0.00 | 38 | 1017.2 |
| 20260901163713 | 27 | 135 | 6.4 | 6.4 | 0.00 | 0.00 | 0.00 | 40 | 1017.3 |
| 20260901163639 | 27 | 135 | 6.4 | 6.4 | 0.00 | 0.00 | 0.00 | 40 | 1017.3 |
| 20260901163237 | 26 | 94 | 3.2 | 9.7 | 0.00 | 0.00 | 0.00 | 40 | 1017.2 |
| 20260901162836 | 26 | 145 | 4.8 | 6.4 | 0.00 | 0.00 | 0.00 | 41 | 1017.2 |
| 20260901162434 | 26 | 184 | 8.0 | 9.7 | 0.00 | 0.00 | 0.00 | 42 | 1017.2 |
| 20260901162033 | 26 | 70 | 1.6 | 4.8 | 0.00 | 0.00 | 0.00 | 43 | 1017.2 |
| 20260901161632 | 25 | 165 | 4.8 | 4.8 | 0.00 | 0.00 | 0.00 | 43 | 1017.2 |
| 20260901161231 | 25 | 123 | 4.8 | 9.7 | 0.00 | 0.00 | 0.00 | 43 | 1017.3 |
| 20260901160830 | 25 | 189 | 3.2 | 9.7 | 0.00 | 0.00 | 0.00 | 43 | 1017.3 |
| 20260901160027 | 24 | 157 | 1.6 | 9.7 | 0.00 | 0.00 | 0.00 | 44 | 1017.3 |
| 20260901155626 | 24 | 180 | 4.8 | 8.0 | 0.00 | 0.00 | 0.00 | 45 | 1017.3 |
| 20260901155224 | 24 | 194 | 1.6 | 3.2 | 0.00 | 0.00 | 0.00 | 46 | 1017.3 |
| 20260901154823 | 24 | 198 | 4.8 | 4.8 | 0.00 | 0.00 | 0.00 | 48 | 1017.2 |
| 20260901154422 | 24 | 56 | 3.2 | 8.0 | 0.00 | 0.00 | 0.00 | 48 | 1017.4 |
| 20260901154020 | 24 | 42 | 3.2 | 8.0 | 0.00 | 0.00 | 0.00 | 50 | 1017.3 |
| 20260901153218 | 22 | 85 | 1.6 | 3.2 | 0.00 | 0.00 | 0.00 | 47 | 1017.2 |
| 20260901152819 | 22 | 67 | 1.6 | 3.2 | 0.00 | 0.00 | 0.00 | 47 | 1017.1 |
| 20260901152416 | 22 | 119 | 0.0 | 0.0 | 0.00 | 0.00 | 0.00 | 48 | 1017.1 |
| 20260901152015 | 22 | 182 | 0.0 | 3.2 | 0.00 | 0.00 | 0.00 | 48 | 1017.1 |
| 20260901151613 | 21 | 229 | 3.2 | 3.2 | 0.00 | 0.00 | 0.00 | 49 | 1017.1 |
| 20260901150409 | 19 | 135 | 1.6 | 1.6 | 0.00 | 0.00 | 0.00 | 50 | 1016.9 |
| 20260901145607 | 18 | 297 | 0.0 | 1.6 | 0.00 | 0.00 | 0.00 | 50 | 1016.8 |
| 20260901144804 | 18 | 22 | 1.6 | 3.2 | 0.00 | 0.00 | 0.00 | 51 | 1016.7 |
| 20260901144403 | 17 | 310 | 1.6 | 1.6 | 0.00 | 0.00 | 0.00 | 51 | 1016.6 |
| 20260901144001 | 17 | 328 | 0.0 | 1.6 | 0.00 | 0.00 | 0.00 | 51 | 1016.6 |
| 20260901143601 | 17 | 333 | 1.6 | 1.6 | 0.00 | 0.00 | 0.00 | 51 | 1016.5 |
| 20260901143159 | 16 | 42 | 0.0 | 1.6 | 0.00 | 0.00 | 0.00 | 51 | 1016.5 |
| 20260901141955 | 15 | 42 | 0.0 | 0.0 | 0.00 | 0.00 | 0.00 | 52 | 1016.3 |
| 20260901141553 | 15 | 45 | 0.0 | 0.0 | 0.00 | 0.00 | 0.00 | 52 | 1016.4 |
| 20260901141152 | 14 | 42 | 0.0 | 1.6 | 0.00 | 0.00 | 0.00 | 52 | 1016.3 |
| 20260901140752 | 14 | 78 | 0.0 | 0.0 | 0.00 | 0.00 | 0.00 | 52 | 1016.2 |
| 20260901135949 | 13 | 184 | 0.0 | 0.0 | 0.00 | 0.00 | 0.00 | 52 | 1016.2 |
| 20260901135146 | 13 | 189 | 0.0 | 0.0 | 0.00 | 0.00 | 0.00 | 52 | 1016.2 |
| 20260901133942 | 13 | 270 | 0.0 | 0.0 | 0.00 | 0.00 | 0.00 | 52 | 1016.0 |
| 20260901133542 | 13 | 279 | 0.0 | 0.0 | 0.00 | 0.00 | 0.00 | 52 | 1016.0 |
| 20260901132741 | 13 | 279 | 0.0 | 0.0 | 0.00 | 0.00 | 0.00 | 52 | 1016.1 |
| 20260901131936 | 13 | 308 | 0.0 | 0.0 | 0.00 | 0.00 | 0.00 | 52 | 1016.0 |
| 20260901131534 | 13 | 328 | 0.0 | 0.0 | 0.00 | 0.00 | 0.00 | 51 | 1016.0 |
| 20260901131133 | 13 | 292 | 0.0 | 1.6 | 0.00 | 0.00 | 0.00 | 52 | 1016.0 |
| 20260901130731 | 13 | 317 | 0.0 | 0.0 | 0.00 | 0.00 | 0.00 | 51 | 1016.1 |
| 20260901125929 | 13 | 294 | 0.0 | 1.6 | 0.00 | 0.00 | 0.00 | 51 | 1016.0 |
| 20260901125529 | 13 | 81 | 0.0 | 1.6 | 0.00 | 0.00 | 0.00 | 51 | 1016.0 |
| 20260901124725 | 13 | 288 | 1.6 | 1.6 | 0.00 | 0.00 | 0.00 | 51 | 1016.1 |
| 20260901124324 | 13 | 283 | 0.0 | 0.0 | 0.00 | 0.00 | 0.00 | 51 | 1016.0 |
| 20260901123522 | 13 | 330 | 0.0 | 1.6 | 0.00 | 0.00 | 0.00 | 51 | 1015.9 |
| 20260901123121 | 13 | 330 | 0.0 | 0.0 | 0.00 | 0.00 | 0.00 | 51 | 1015.9 |
| 20260901122317 | 13 | 279 | 0.0 | 0.0 | 0.00 | 0.00 | 0.00 | 51 | 1016.0 |
| 20260901121916 | 13 | 274 | 0.0 | 0.0 | 0.00 | 0.00 | 0.00 | 51 | 1015.9 |
| 20260901121515 | 13 | 301 | 0.0 | 1.6 | 0.00 | 0.00 | 0.00 | 51 | 1015.9 |
| 20260901121114 | 13 | 205 | 0.0 | 1.6 | 0.00 | 0.00 | 0.00 | 51 | 1015.9 |
| 20260901120712 | 13 | 186 | 0.0 | 0.0 | 0.00 | 0.00 | 0.00 | 51 | 1015.9 |
| 20260901120311 | 13 | 236 | 0.0 | 0.0 | 0.00 | 0.00 | 0.00 | 51 | 1015.9 |
| 20260901115107 | 14 | 283 | 1.6 | 1.6 | 0.00 | 0.00 | 0.00 | 51 | 1015.9 |
| 20260901114707 | 14 | 288 | 1.6 | 1.6 | 0.00 | 0.00 | 0.00 | 51 | 1015.9 |
| 20260901114305 | 14 | 279 | 1.6 | 1.6 | 0.00 | 0.00 | 0.00 | 51 | 1015.9 |
| 20260901113903 | 14 | 283 | 0.0 | 1.6 | 0.00 | 0.00 | 0.00 | 51 | 1015.9 |
| 20260901113101 | 14 | 301 | 1.6 | 1.6 | 0.00 | 0.00 | 0.00 | 51 | 1016.0 |
| 20260901112700 | 14 | 294 | 0.0 | 0.0 | 0.00 | 0.00 | 0.00 | 50 | 1015.9 |
| 20260901112259 | 14 | 279 | 0.0 | 0.0 | 0.00 | 0.00 | 0.00 | 50 | 1015.9 |
| 20260901110653 | 14 | 330 | 0.0 | 0.0 | 0.00 | 0.00 | 0.00 | 50 | 1015.9 |
| 20260901110253 | 14 | 317 | 0.0 | 0.0 | 0.00 | 0.00 | 0.00 | 1015.8 | |
| 20260901105851 | 14 | 40 | 1.6 | 1.6 | 0.00 | 0.00 | 0.00 | 50 | 1015.9 |
| 20260901105450 | 14 | 326 | 0.0 | 0.0 | 0.00 | 0.00 | 0.00 | 50 | 1015.8 |
| 20260901104648 | 14 | 236 | 0.0 | 0.0 | 0.00 | 0.00 | 0.00 | 49 | |
| 20260901104245 | 14 | 189 | 0.0 | 0.0 | 0.00 | 0.00 | 0.00 | 49 | 1015.9 |
| 20260901103844 | 14 | 288 | 0.0 | 0.0 | 0.00 | 0.00 | 0.00 | 49 | 1015.9 |
| 20260901103443 | 14 | 157 | 0.0 | 0.0 | 0.00 | 0.00 | 0.00 | 49 | 1016.0 |
| 20260901103042 | 14 | 292 | 0.0 | 0.0 | 0.00 | 0.00 | 0.00 | 49 | 1015.9 |
| 20260901102640 | 14 | 346 | 0.0 | 1.6 | 0.00 | 0.00 | 0.00 | 49 | 1015.9 |
| 20260901102240 | 14 | 33 | 1.6 | 1.6 | 0.00 | 0.00 | 0.00 | 49 | 1015.9 |
| 20260901101838 | 14 | 38 | 0.0 | 1.6 | 0.00 | 0.00 | 0.00 | 49 | 1015.9 |
| 20260901100232 | 15 | 139 | 1.6 | 3.2 | 0.00 | 0.00 | 0.00 | 49 | 1016.1 |
| 20260901095833 | 15 | 137 | 1.6 | 1.6 | 0.00 | 0.00 | 0.00 | 49 | 1016.0 |
| 20260901095831 | 15 | 137 | 1.6 | 1.6 | 0.00 | 0.00 | 0.00 | 49 | 1016.0 |
| 20260901095430 | 15 | 150 | 1.6 | 3.2 | 0.00 | 0.00 | 0.00 | 49 | 1016.1 |
| 20260901095029 | 15 | 135 | 0.0 | 1.6 | 0.00 | 0.00 | 0.00 | 49 | 1016.1 |
| 20260901094226 | 14 | 250 | 0.0 | 0.0 | 0.00 | 0.00 | 0.00 | 49 | 1016.1 |
| 20260901093825 | 14 | 301 | 0.0 | 0.0 | 0.00 | 0.00 | 0.00 | 49 | 1016.1 |
| 20260901093424 | 14 | 292 | 0.0 | 0.0 | 0.00 | 0.00 | 0.00 | 49 | 1016.1 |
| 20260901093022 | 14 | 344 | 0.0 | 1.6 | 0.00 | 0.00 | 0.00 | 48 | 1016.0 |
| 20260901092621 | 15 | 353 | 0.0 | 0.0 | 0.00 | 0.00 | 0.00 | 48 | 1015.9 |
| 20260901092220 | 15 | 299 | 0.0 | 0.0 | 0.00 | 0.00 | 0.00 | 48 | 1015.9 |
| 20260901091819 | 15 | 317 | 0.0 | 1.6 | 0.00 | 0.00 | 0.00 | 48 | 1015.8 |
| 20260901091417 | 15 | 321 | 1.6 | 1.6 | 0.00 | 0.00 | 0.00 | 48 | 1015.8 |
| 20260901091016 | 15 | 306 | 0.0 | 0.0 | 0.00 | 0.00 | 0.00 | 48 | 1016.0 |
| 20260901090616 | 15 | 279 | 0.0 | 0.0 | 0.00 | 0.00 | 0.00 | 48 | 1016.0 |
| 20260901090214 | 15 | 283 | 0.0 | 0.0 | 0.00 | 0.00 | 0.00 | 48 | 1016.1 |
| 20260901085813 | 15 | 186 | 0.0 | 0.0 | 0.00 | 0.00 | 0.00 | 48 | 1016.0 |
| 20260901085009 | 15 | 301 | 0.0 | 0.0 | 0.00 | 0.00 | 0.00 | 48 | 1016.1 |
| 20260901084609 | 15 | 42 | 0.0 | 0.0 | 0.00 | 0.00 | 0.00 | 48 | 1016.1 |
| 20260901083848 | 15 | 45 | 0.0 | 0.0 | 0.00 | 0.00 | 0.00 | 47 | 1016.2 |
| 20260901083806 | 15 | 45 | 0.0 | 0.0 | 0.00 | 0.00 | 0.00 | 47 | 1016.2 |
| 20260901083447 | 15 | 33 | 0.0 | 0.0 | 0.00 | 0.00 | 0.00 | 47 | 1016.1 |
| 20260901083405 | 15 | 33 | 0.0 | 0.0 | 0.00 | 0.00 | 0.00 | 47 | 1016.1 |
| 20260901082200 | 15 | 317 | 1.6 | 3.2 | 0.00 | 0.00 | 0.00 | 47 | 1016.1 |
| 20260901081843 | 16 | 45 | 1.6 | 1.6 | 0.00 | 0.00 | 0.00 | 47 | 1016.1 |
| 20260901081800 | 16 | 45 | 1.6 | 1.6 | 0.00 | 0.00 | 0.00 | 47 | 1016.1 |
| 20260901081358 | 16 | 328 | 1.6 | 4.8 | 0.00 | 0.00 | 0.00 | 47 | 1016.1 |
| 20260901080957 | 16 | 40 | 0.0 | 1.6 | 0.00 | 0.00 | 0.00 | 47 | 1016.2 |
| 20260901080556 | 16 | 40 | 0.0 | 1.6 | 0.00 | 0.00 | 0.00 | 46 | 1016.2 |
| 20260901080154 | 16 | 139 | 1.6 | 1.6 | 0.00 | 0.00 | 0.00 | 46 | 1016.1 |
| 20260901075753 | 16 | 139 | 0.0 | 1.6 | 0.00 | 0.00 | 0.00 | 46 | 1016.1 |
| 20260901074951 | 16 | 139 | 1.6 | 1.6 | 0.00 | 0.00 | 0.00 | 46 | 1016.1 |
| 20260901074549 | 16 | 137 | 1.6 | 1.6 | 0.00 | 0.00 | 0.00 | 46 | 1016.2 |
| 20260901074148 | 16 | 184 | 0.0 | 1.6 | 0.00 | 0.00 | 0.00 | 46 | 1016.2 |
| 20260901073346 | 16 | 135 | 1.6 | 3.2 | 0.00 | 0.00 | 0.00 | 46 | 1016.2 |
| 20260901072944 | 17 | 139 | 1.6 | 3.2 | 0.00 | 0.00 | 0.00 | 46 | 1016.2 |
| 20260901072142 | 17 | 189 | 0.0 | 4.8 | 0.00 | 0.00 | 0.00 | 46 | 1016.2 |
| 20260901071338 | 17 | 157 | 3.2 | 4.8 | 0.00 | 0.00 | 0.00 | 46 | 1016.1 |
| 20260901070937 | 17 | 135 | 1.6 | 4.8 | 0.00 | 0.00 | 0.00 | 46 | 1016.1 |
| 20260901070536 | 17 | 137 | 3.2 | 4.8 | 0.00 | 0.00 | 0.00 | 45 | 1016.0 |
| 20260901070136 | 17 | 130 | 1.6 | 3.2 | 0.00 | 0.00 | 0.00 | 45 | 1016.0 |
| 20260901065333 | 17 | 236 | 0.0 | 0.0 | 0.00 | 0.00 | 0.00 | 45 | 1015.9 |
| 20260901064931 | 17 | 240 | 0.0 | 1.6 | 0.00 | 0.00 | 0.00 | 45 | 1015.9 |
| 20260901064530 | 17 | 139 | 0.0 | 1.6 | 0.00 | 0.00 | 0.00 | 45 | 1015.9 |
| 20260901063727 | 17 | 135 | 0.0 | 3.2 | 0.00 | 0.00 | 0.00 | 45 | 1015.7 |
| 20260901062919 | 17 | 139 | 3.2 | 3.2 | 0.00 | 0.00 | 0.00 | 45 | 1015.6 |
| 20260901062116 | 17 | 137 | 3.2 | 3.2 | 0.00 | 0.00 | 0.00 | 44 | 1015.7 |
| 20260901061314 | 17 | 135 | 1.6 | 1.6 | 0.00 | 0.00 | 0.00 | 44 | 1015.6 |
| 20260901055701 | 17 | 139 | 0.0 | 1.6 | 0.00 | 0.00 | 0.00 | 44 | 1015.5 |
| 20260901055300 | 18 | 33 | 0.0 | 1.6 | 0.00 | 0.00 | 0.00 | 43 | 1015.5 |
| 20260901054859 | 18 | 76 | 0.0 | 3.2 | 0.00 | 0.00 | 0.00 | 43 | 1015.5 |
| 20260901054458 | 18 | 137 | 1.6 | 3.2 | 0.00 | 0.00 | 0.00 | 43 | 1015.5 |
| 20260901053655 | 18 | 135 | 1.6 | 1.6 | 0.00 | 0.00 | 0.00 | 43 | 1015.4 |
| 20260901053254 | 18 | 135 | 1.6 | 3.2 | 0.00 | 0.00 | 0.00 | 43 | 1015.4 |
| 20260901052051 | 18 | 81 | 0.0 | 1.6 | 0.00 | 0.00 | 0.00 | 43 | 1015.4 |
| 20260901051652 | 18 | 137 | 1.6 | 3.2 | 0.00 | 0.00 | 0.00 | 42 | 1015.3 |
| 20260901051247 | 18 | 139 | 3.2 | 4.8 | 0.00 | 0.00 | 0.00 | 42 | 1015.4 |
| 20260901050846 | 18 | 137 | 3.2 | 3.2 | 0.00 | 0.00 | 0.00 | 42 | 1015.4 |
| 20260901050445 | 18 | 139 | 0.0 | 0.0 | 0.00 | 0.00 | 0.00 | 42 | 1015.3 |
| 20260901050044 | 18 | 137 | 0.0 | 1.6 | 0.00 | 0.00 | 0.00 | 42 | 1015.4 |
| 20260901045643 | 18 | 141 | 1.6 | 3.2 | 0.00 | 0.00 | 0.00 | 42 | 1015.4 |
| 20260901045241 | 18 | 74 | 0.0 | 0.0 | 0.00 | 0.00 | 0.00 | 42 | 1015.3 |
| 20260901044840 | 19 | 90 | 0.0 | 0.0 | 0.00 | 0.00 | 0.00 | 42 | 1015.3 |
| 20260901043636 | 19 | 279 | 1.6 | 1.6 | 0.00 | 0.00 | 0.00 | 41 | 1015.2 |
| 20260901043235 | 19 | 274 | 0.0 | 0.0 | 0.00 | 0.00 | 0.00 | 41 | 1015.1 |
| 20260901042833 | 19 | 274 | 0.0 | 0.0 | 0.00 | 0.00 | 0.00 | 41 | 1015.1 |
| 20260901042433 | 19 | 292 | 0.0 | 0.0 | 0.00 | 0.00 | 0.00 | 41 | 1015.0 |
| 20260901041630 | 19 | 184 | 0.0 | 0.0 | 0.00 | 0.00 | 0.00 | 40 | 1014.9 |
| 20260901041228 | 19 | 290 | 0.0 | 0.0 | 0.00 | 0.00 | 0.00 | 40 | 1014.9 |
| 20260901040827 | 20 | 270 | 0.0 | 1.6 | 0.00 | 0.00 | 0.00 | 39 | 1014.9 |
| 20260901040425 | 20 | 279 | 0.0 | 1.6 | 0.00 | 0.00 | 0.00 | 39 | 1014.8 |
| 20260901040024 | 20 | 288 | 1.6 | 1.6 | 0.00 | 0.00 | 0.00 | 39 | 1014.6 |
| 20260901035623 | 20 | 274 | 0.0 | 0.0 | 0.00 | 0.00 | 0.00 | 38 | 1014.6 |
| 20260901035223 | 20 | 299 | 0.0 | 1.6 | 0.00 | 0.00 | 0.00 | 38 | 1014.7 |
| 20260901034018 | 20 | 40 | 0.0 | 0.0 | 0.00 | 0.00 | 0.00 | 37 | 1014.5 |
| 20260901033618 | 21 | 83 | 0.0 | 0.0 | 0.00 | 0.00 | 0.00 | 37 | 1014.4 |
| 20260901033616 | 21 | 83 | 0.0 | 0.0 | 0.00 | 0.00 | 0.00 | 37 | 1014.4 |
| 20260901033215 | 21 | 81 | 0.0 | 1.6 | 0.00 | 0.00 | 0.00 | 37 | 1014.4 |
| 20260901032814 | 21 | 36 | 1.6 | 1.6 | 0.00 | 0.00 | 0.00 | 36 | 1014.3 |
| 20260901032413 | 21 | 191 | 1.6 | 1.6 | 0.00 | 0.00 | 0.00 | 36 | 1014.2 |
| 20260901032012 | 21 | 159 | 0.0 | 3.2 | 0.00 | 0.00 | 0.00 | 36 | 1014.2 |
| 20260901031610 | 21 | 137 | 1.6 | 4.8 | 0.00 | 0.00 | 0.00 | 35 | 1014.2 |
| 20260901030808 | 21 | 132 | 6.4 | 8.0 | 0.00 | 0.00 | 0.00 | 35 | 1014.2 |
| 20260901030406 | 21 | 135 | 4.8 | 9.7 | 0.00 | 0.00 | 0.00 | 34 | 1014.2 |
| 20260901025604 | 21 | 101 | 4.8 | 8.0 | 0.00 | 0.00 | 0.00 | 33 | 1014.0 |
| 20260901025203 | 22 | 92 | 6.4 | 6.4 | 0.00 | 0.00 | 0.00 | 33 | 1014.1 |
| 20260901024400 | 22 | 135 | 6.4 | 9.7 | 0.00 | 0.00 | 0.00 | 32 | 1013.9 |
| 20260901023958 | 22 | 135 | 6.4 | 8.0 | 0.00 | 0.00 | 0.00 | 31 | 1013.9 |
| 20260901023557 | 22 | 137 | 9.7 | 12.9 | 0.00 | 0.00 | 0.00 | 31 | 1013.9 |
| 20260901023156 | 23 | 135 | 8.0 | 9.7 | 0.00 | 0.00 | 0.00 | 30 | 1013.9 |
| 20260901022755 | 23 | 105 | 6.4 | 12.9 | 0.00 | 0.00 | 0.00 | 30 | 1013.9 |
| 20260901022353 | 23 | 128 | 8.0 | 12.9 | 0.00 | 0.00 | 0.00 | 29 | 1013.9 |